Volver al catálogo

OBJECT A

ActivoHEO
NORAD 100125·UNKNOWN·🇺🇸 United States

Lanzado Jul 21, 2026 desde Cape Canaveral Space Force Station

Loading…

Próximos Pases (próximas 24 horas)

TLE

ActualizadoSource: Space-Track

Época: Sep 8, 2026, 01:41 UTC

1 A0125U 26167A   26251.07072669  .00000269  00000-0  34696-1 0  9999
2 A0125  24.2385  86.6268 7570047 201.8331  89.9616  1.67714659   845

Sigue OBJECT A en tiempo real con AllMySat

Download on the App Store